Location: Newark
(25.4297°S, 49.2719°W)
Time: 05:26:09
(UTC+00:00)

Transit 2A - Visible Passes

Search period start: 13 November 2019 00:00
Search period end: 23 November 2019 00:00
Orbit: 601 x 957 km, 66.7° (Epoch: 12 November)

Date Brightness Start Highest point End Pass type
(mag) Time Alt. Az. Time Alt. Az. Time Alt. Az.
13 Nov 8.5 04:23:57 18° SSE 04:23:57 18° SSE 04:25:28 10° SSE visible
14 Nov 8.9 03:50:36 14° SSE 03:50:36 14° SSE 03:51:21 10° SSE visible
14 Nov 8.6 05:31:04 11° SW 05:31:04 11° SW 05:31:36 10° SSW visible
15 Nov 8.6 04:57:41 14° SSW 04:57:41 14° SSW 04:59:00 10° SSW visible
16 Nov 8.6 04:24:16 16° S 04:24:16 16° S 04:25:39 10° S visible
17 Nov 8.8 03:50:48 16° S 03:50:48 16° S 03:51:57 10° S visible
18 Nov 8.9 03:17:17 14° SSE 03:17:17 14° SSE 03:18:03 10° SSE visible
19 Nov 9.0 02:43:44 11° SSE 02:43:44 11° SSE 02:43:58 10° SSE visible
20 Nov 8.9 03:50:34 12° SSW 03:50:34 12° SSW 03:51:24 10° SSW visible
21 Nov 8.8 03:16:54 15° SSW 03:16:54 15° SSW 03:18:08 10° S visible
22 Nov 8.7 02:43:10 16° S 02:43:10 16° S 02:44:29 10° S visible
